Weather History for Los Angeles Downtown, CA

Change the Weather History Date:

Thursday, July 24, 2014

  Actual Average Record
Temperature  
Mean Temperature 79 °F 74 °F  
Max Temperature 92 °F 84 °F 103 °F (1891)
Min Temperature 65 °F 64 °F 52 °F (1882)
Degree Days  
Heating Degree Days 0 0  
Month to date heating degree days 0 0  
Since 1 June heating degree days 0 8  
Since 1 July heating degree days 0 0  
Cooling Degree Days 14 9  
Month to date cooling degree days 217 198  
Year to date cooling degree days 639 486  
Since 1 June cooling degree days 345 332  
Growing Degree Days 28 (Base 50)    
Moisture  
Dew Point 60 °F    
Average Humidity 62    
Maximum Humidity 87    
Minimum Humidity 36    
Precipitation  
Precipitation 0.00 in 0.00 in 0.00 in (2014)
Month to date precipitation T 0.01  
Year to date precipitation 5.11 10.62  
Since 1 July precipitation T 0.01  
Sea Level Pressure  
Sea Level Pressure 29.81 in    
Wind  
Wind Speed 2 mph (SW)    
Max Wind Speed 10 mph    
Max Gust Speed 16 mph    
Visibility 10 miles    
Events      
T = Trace of Precipitation, MM = Missing Value Source: NWS Daily Summary

Daily Weather History Graph

Daily Weather History Graph

Search for Another Location

Airport:

Trip Planner

Search our weather history database for the weather conditions in past years. The results will help you decide how hot, cold, wet, or windy it might be!

Date:

Astronomy

Jul. 24, 2014 Rise Set
Actual Time 5:58 AM PDT 8:00 PM PDT
Civil Twilight 5:31 AM PDT 8:27 PM PDT
Nautical Twilight 4:57 AM PDT 9:01 PM PDT
Astronomical Twilight 4:20 AM PDT 9:38 PM PDT
Moon 4:09 AM PDT (7/24) 6:20 PM PDT (7/24)
Length of Visible Light 14h 56m
Length of Day
14h 01m
Waning Crescent, 4% of the Moon is Illuminated
Jul 24
Waning Crescent
Jul 26
New
Aug 3
First Quarter
Aug 10
Full
Aug 17
Last Quarter

Hourly Weather History & Observations

Time (PDT) Temp. Heat Index Dew Point Humidity Pressure Visibility Wind Dir Wind Speed Gust Speed Precip Events Conditions
12:47 AM 69.1 °F - 61.0 °F 75% 29.88 in 10.0 mi Calm Calm - N/A   Clear
1:47 AM 68.0 °F - 61.0 °F 78% 29.87 in 10.0 mi Calm Calm - N/A   Clear
2:47 AM 66.9 °F - 62.1 °F 84% 29.86 in 7.0 mi Calm Calm - N/A   Clear
3:47 AM 66.9 °F - 61.0 °F 81% 29.84 in 10.0 mi Calm Calm - N/A   Clear
4:47 AM 66.0 °F - 61.0 °F 84% 29.84 in 10.0 mi Calm Calm - N/A   Clear
5:47 AM 66.0 °F - 60.1 °F 81% 29.86 in 10.0 mi Calm Calm - N/A   Clear
6:47 AM 66.9 °F - 61.0 °F 81% 29.86 in 10.0 mi Calm Calm - N/A   Clear
7:47 AM 73.0 °F - 62.1 °F 68% 29.86 in 10.0 mi Calm Calm - N/A   Clear
8:47 AM 77.0 °F - 62.1 °F 60% 29.85 in 10.0 mi West 3.5 mph - N/A   Clear
9:47 AM 82.0 °F 82.7 °F 61.0 °F 49% 29.83 in 10.0 mi Calm Calm - N/A   Clear
10:47 AM 87.1 °F 86.7 °F 60.1 °F 40% 29.82 in 10.0 mi SW 4.6 mph - N/A   Clear
11:47 AM 91.0 °F 91.9 °F 63.0 °F 39% 29.81 in 10.0 mi Variable 4.6 mph - N/A   Clear
12:47 PM 89.1 °F 88.2 °F 59.0 °F 36% 29.79 in 10.0 mi SSW 5.8 mph - N/A   Clear
1:47 PM 89.1 °F 89.0 °F 61.0 °F 39% 29.79 in 10.0 mi Calm Calm - N/A   Clear
2:47 PM 88.0 °F 86.7 °F 57.0 °F 35% 29.78 in 10.0 mi West 6.9 mph - N/A   Clear
3:47 PM 86.0 °F 85.4 °F 59.0 °F 40% 29.76 in 10.0 mi Variable 5.8 mph - N/A   Clear
4:47 PM 84.0 °F 84.0 °F 60.1 °F 44% 29.75 in 10.0 mi Variable 5.8 mph - N/A   Clear
5:47 PM 86.0 °F 84.9 °F 57.0 °F 37% 29.73 in 10.0 mi Variable 5.8 mph - N/A   Clear
6:47 PM 84.0 °F 83.8 °F 59.0 °F 43% 29.73 in 10.0 mi West 3.5 mph - N/A   Clear
7:47 PM 77.0 °F - 59.0 °F 54% 29.73 in 10.0 mi SW 3.5 mph - N/A   Clear
8:47 PM 73.9 °F - 60.1 °F 62% 29.76 in 10.0 mi Calm Calm - N/A   Clear
9:47 PM 73.9 °F - 62.1 °F 66% 29.78 in 10.0 mi Calm Calm - N/A   Clear
10:47 PM 73.0 °F - 60.1 °F 64% 29.79 in 10.0 mi SE 4.6 mph - N/A   Clear
11:47 PM 71.1 °F - 59.0 °F 66% 29.81 in 10.0 mi SW 3.5 mph - N/A   Clear